| time (UTC) | temp F | wind direction | speed knots | gust knots | rain 1hr in | rain 24hr in | rain mn in | humidity % | barometer mb |
| 20260507065025 | 56 | 331 | 0.0 | 0.0 | 0.00 | 0.00 | 0.07 | 87 | 1012.2 |
| 20260507064528 | 56 | 330 | 0.0 | 0.0 | 0.00 | 0.00 | 0.07 | 89 | 1012.2 |
| 20260507063527 | 54 | 330 | 0.0 | 0.0 | 0.00 | 0.00 | 0.07 | 90 | 1012.1 |
| 20260507063021 | 54 | 330 | 0.0 | 0.0 | 0.00 | 0.00 | 0.07 | 89 | 1012.2 |
| 20260507062526 | 54 | 330 | 0.0 | 0.0 | 0.00 | 0.00 | 0.07 | 90 | 1012.1 |
| 20260507062025 | 54 | 330 | 0.0 | 0.0 | 0.00 | 0.00 | 0.07 | 93 | 1012.0 |
| 20260507061527 | 53 | 330 | 0.0 | 0.0 | 0.00 | 0.00 | 0.07 | 93 | 1011.9 |
| 20260507061032 | 53 | 330 | 0.0 | 0.0 | 0.00 | 0.00 | 0.07 | 94 | 1011.9 |
| 20260507060542 | 52 | 336 | 0.0 | 0.0 | 0.00 | 0.00 | 0.07 | 94 | 1011.9 |
| 20260507060026 | 52 | 84 | 0.0 | 0.0 | 0.00 | 0.00 | 0.07 | 96 | 1011.8 |
| 20260507055534 | 51 | 84 | 0.0 | 0.0 | 0.00 | 0.00 | 0.07 | 96 | 1011.8 |
| 20260507054033 | 51 | 84 | 0.0 | 0.0 | 0.00 | 0.00 | 0.07 | 95 | 1011.7 |
| 20260507053033 | 51 | 84 | 0.0 | 0.0 | 0.00 | 0.00 | 0.07 | 95 | 1011.6 |
| 20260507052538 | 51 | 84 | 0.0 | 0.0 | 0.00 | 0.00 | 0.07 | 95 | 1011.6 |
| 20260507052022 | 51 | 84 | 0.0 | 0.0 | 0.00 | 0.00 | 0.07 | 95 | 1011.5 |
| 20260507051529 | 50 | 84 | 0.0 | 0.0 | 0.00 | 0.00 | 0.07 | 95 | 1011.4 |
| 20260507051028 | 50 | 34 | 0.0 | 0.0 | 0.00 | 0.00 | 0.07 | 96 | 1011.3 |
| 20260507050522 | 50 | 34 | 0.0 | 0.0 | 0.00 | 0.00 | 0.07 | 96 | 1011.3 |
| 20260507050033 | 50 | 22 | 0.0 | 0.0 | 0.00 | 0.00 | 0.07 | 96 | 1011.3 |
| 20260507045529 | 50 | 22 | 0.0 | 0.0 | 0.00 | 0.00 | 0.07 | 95 | 1011.3 |
| 20260507045024 | 50 | 22 | 0.0 | 0.0 | 0.00 | 0.00 | 0.07 | 95 | 1011.2 |
| 20260507044023 | 50 | 22 | 0.0 | 0.0 | 0.00 | 0.00 | 0.07 | 95 | 1011.1 |
| 20260507043529 | 50 | 22 | 0.0 | 0.0 | 0.00 | 0.00 | 0.07 | 95 | 1011.1 |
| 20260507043036 | 50 | 22 | 0.0 | 0.0 | 0.00 | 0.00 | 0.07 | 94 | 1011.0 |
| 20260507042528 | 50 | 22 | 0.0 | 0.0 | 0.00 | 0.00 | 0.07 | 94 | 1011.0 |
| 20260507042029 | 50 | 22 | 0.0 | 0.0 | 0.00 | 0.00 | 0.07 | 94 | 1010.9 |
| 20260507041522 | 50 | 22 | 0.0 | 0.0 | 0.00 | 0.00 | 0.07 | 93 | 1010.9 |
| 20260507041032 | 50 | 22 | 0.0 | 0.0 | 0.00 | 0.00 | 0.07 | 94 | 1010.8 |
| 20260507040520 | 50 | 22 | 0.0 | 0.0 | 0.00 | 0.00 | 0.07 | 93 | 1010.8 |
| 20260507040035 | 50 | 22 | 0.0 | 0.0 | 0.00 | 0.00 | 0.07 | 92 | 1010.8 |
| 20260507035521 | 50 | 22 | 0.0 | 0.0 | 0.00 | 0.00 | 0.07 | 92 | 1010.8 |
| 20260507035038 | 50 | 22 | 0.0 | 0.0 | 0.00 | 0.00 | 0.07 | 92 | 1010.8 |
| 20260507034533 | 50 | 355 | 0.0 | 0.0 | 0.00 | 0.00 | 0.07 | 92 | 1010.7 |
| 20260507034023 | 51 | 5 | 0.0 | 0.0 | 0.00 | 0.00 | 0.07 | 92 | 1010.8 |
| 20260507033535 | 51 | 355 | 0.0 | 0.0 | 0.00 | 0.00 | 0.07 | 92 | 1010.7 |
| 20260507033022 | 51 | 355 | 0.0 | 0.0 | 0.00 | 0.00 | 0.07 | 91 | 1010.8 |
| 20260507032037 | 52 | 327 | 0.0 | 0.0 | 0.00 | 0.00 | 0.06 | 89 | 1010.7 |
| 20260507031529 | 51 | 335 | 0.0 | 0.0 | 0.00 | 0.00 | 0.03 | 86 | 1010.8 |
| 20260507031028 | 51 | 341 | 0.0 | 0.0 | 0.00 | 0.00 | 0.02 | 88 | 1010.8 |
| 20260507030520 | 51 | 333 | 0.0 | 0.0 | 0.00 | 0.00 | 0.02 | 88 | 1010.7 |
| 20260507030035 | 51 | 338 | 0.0 | 0.0 | 0.00 | 0.00 | 0.02 | 89 | 1010.8 |
| 20260507025029 | 51 | 327 | 0.0 | 0.0 | 0.00 | 0.00 | 0.02 | 91 | 1010.7 |
| 20260507024023 | 51 | 343 | 0.0 | 0.0 | 0.00 | 0.00 | 0.02 | 92 | 1010.8 |
| 20260507023537 | 51 | 343 | 0.0 | 0.0 | 0.00 | 0.00 | 0.02 | 92 | 1010.8 |
| 20260507023027 | 51 | 340 | 0.0 | 0.0 | 0.00 | 0.00 | 0.02 | 92 | 1010.8 |
| 20260507022535 | 50 | 21 | 0.0 | 0.0 | 0.00 | 0.00 | 0.02 | 92 | 1010.8 |
| 20260507022022 | 50 | 94 | 0.0 | 0.0 | 0.00 | 0.00 | 0.02 | 93 | 1010.8 |
| 20260507021529 | 50 | 94 | 0.0 | 0.0 | 0.00 | 0.00 | 0.02 | 93 | 1010.9 |
| 20260507021034 | 50 | 94 | 0.0 | 0.0 | 0.00 | 0.00 | 0.02 | 93 | 1010.9 |
| 20260507020520 | 50 | 101 | 0.0 | 0.0 | 0.00 | 0.00 | 0.02 | 93 | 1011.0 |
| 20260507020025 | 50 | 101 | 0.0 | 0.0 | 0.00 | 0.00 | 0.02 | 94 | 1010.9 |
| 20260507015539 | 50 | 301 | 0.0 | 0.0 | 0.00 | 0.00 | 0.02 | 94 | 1010.9 |
| 20260507015032 | 50 | 300 | 0.0 | 0.0 | 0.00 | 0.00 | 0.02 | 95 | 1010.8 |
| 20260507014519 | 50 | 300 | 0.0 | 0.0 | 0.00 | 0.00 | 0.02 | 95 | 1010.7 |
| 20260507013526 | 51 | 12 | 0.0 | 0.0 | 0.00 | 0.00 | 0.02 | 94 | 1010.6 |
| 20260507013029 | 51 | 12 | 0.0 | 0.0 | 0.00 | 0.00 | 0.02 | 94 | 1010.5 |
| 20260507012523 | 51 | 12 | 0.0 | 0.0 | 0.00 | 0.00 | 0.02 | 94 | 1010.5 |
| 20260507012030 | 51 | 12 | 0.0 | 0.0 | 0.00 | 0.00 | 0.02 | 93 | 1010.5 |
| 20260507011521 | 51 | 12 | 0.0 | 0.0 | 0.00 | 0.00 | 0.02 | 93 | 1010.4 |
| 20260507011026 | 51 | 12 | 0.0 | 0.0 | 0.00 | 0.00 | 0.02 | 93 | 1010.4 |
| 20260507010554 | 51 | 12 | 0.0 | 0.0 | 0.00 | 0.00 | 0.02 | 93 | 1010.4 |
| 20260507010027 | 52 | 12 | 0.0 | 0.0 | 0.00 | 0.00 | 0.02 | 92 | 1010.3 |
| 20260507005529 | 52 | 12 | 0.0 | 0.0 | 0.00 | 0.00 | 0.02 | 92 | 1010.2 |
| 20260507004536 | 52 | 12 | 0.0 | 0.0 | 0.00 | 0.00 | 0.02 | 91 | 1010.3 |
| 20260507004037 | 52 | 12 | 0.0 | 0.0 | 0.00 | 0.00 | 0.02 | 90 | 1010.2 |
| 20260507003041 | 52 | 12 | 0.0 | 0.0 | 0.00 | 0.00 | 0.01 | 90 | 1010.2 |
| 20260507002527 | 52 | 12 | 0.0 | 0.0 | 0.00 | 0.00 | 0.01 | 91 | 1010.3 |
| 20260507002026 | 53 | 12 | 0.0 | 0.0 | 0.00 | 0.00 | 0.01 | 89 | 1010.3 |
| 20260507001531 | 53 | 12 | 0.0 | 0.0 | 0.00 | 0.00 | 0.00 | 88 | 1010.2 |
| 20260507001026 | 52 | 12 | 0.0 | 0.0 | 0.00 | 0.00 | 0.00 | 86 | 1010.3 |
| 20260507000531 | 52 | 12 | 0.0 | 0.0 | 0.00 | 0.00 | 0.00 | 87 | 1010.3 |
| 20260507000030 | 52 | 342 | 0.0 | 0.0 | 0.00 | 0.00 | 0.00 | 89 | 1010.3 |
| 20260506235035 | 51 | 303 | 0.0 | 0.0 | 0.00 | 0.00 | 0.00 | 93 | 1010.4 |
| 20260506234527 | 51 | 310 | 0.0 | 0.0 | 0.00 | 0.00 | 0.00 | 94 | 1010.4 |
| 20260506234026 | 51 | 293 | 0.0 | 0.0 | 0.00 | 0.00 | 0.00 | 94 | 1010.4 |
| 20260506233537 | 51 | 293 | 0.0 | 0.0 | 0.00 | 0.00 | 0.00 | 94 | 1010.4 |
| 20260506232525 | 52 | 293 | 0.0 | 0.0 | 0.00 | 0.00 | 0.00 | 94 | 1010.4 |
| 20260506231528 | 52 | 293 | 0.0 | 0.0 | 0.00 | 0.00 | 0.00 | 93 | 1010.3 |
| 20260506231033 | 52 | 293 | 0.0 | 0.0 | 0.00 | 0.00 | 0.00 | 93 | 1010.3 |
| 20260506230537 | 52 | 293 | 0.0 | 0.0 | 0.00 | 0.00 | 0.00 | 92 | 1010.3 |
| 20260506230028 | 52 | 294 | 0.0 | 0.0 | 0.00 | 0.00 | 0.00 | 92 | 1010.2 |
| 20260506225020 | 52 | 293 | 0.0 | 0.0 | 0.00 | 0.00 | 0.00 | 91 | 1010.1 |
| 20260506223544 | 52 | 293 | 0.0 | 0.0 | 0.00 | 0.00 | 0.00 | 91 | 1010.1 |
| 20260506223026 | 52 | 317 | 0.0 | 0.0 | 0.00 | 0.00 | 0.00 | 92 | 1010.1 |
| 20260506222538 | 51 | 40 | 0.0 | 0.0 | 0.00 | 0.00 | 0.00 | 93 | 1010.1 |
| 20260506221524 | 51 | 9 | 0.0 | 0.0 | 0.00 | 0.00 | 0.00 | 95 | 1010.1 |
| 20260506221033 | 51 | 12 | 0.0 | 0.0 | 0.00 | 0.00 | 0.00 | 95 | 1010.1 |
| 20260506220526 | 51 | 12 | 0.0 | 0.0 | 0.00 | 0.00 | 0.00 | 95 | 1010.1 |
| 20260506215538 | 51 | 12 | 0.0 | 0.0 | 0.00 | 0.00 | 1.50 | 95 | 1010.0 |
| 20260506215028 | 51 | 12 | 0.0 | 0.0 | 0.00 | 0.00 | 1.50 | 95 | 1010.0 |
| 20260506214535 | 51 | 12 | 0.0 | 0.0 | 0.00 | 0.00 | 1.50 | 95 | 1010.0 |
| 20260506214028 | 51 | 12 | 0.0 | 0.0 | 0.00 | 0.00 | 1.50 | 94 | 1010.0 |
| 20260506213521 | 51 | 12 | 0.0 | 0.0 | 0.00 | 0.00 | 1.50 | 94 | 1009.9 |
| 20260506213039 | 51 | 12 | 0.0 | 0.0 | 0.00 | 0.00 | 1.50 | 94 | 1009.9 |
| 20260506212523 | 51 | 12 | 0.0 | 0.0 | 0.00 | 0.00 | 1.50 | 93 | 1009.9 |
| 20260506212045 | 52 | 56 | 0.0 | 0.0 | 0.00 | 0.00 | 1.50 | 93 | 1010.0 |
| 20260506211025 | 52 | 56 | 0.0 | 0.0 | 0.00 | 0.00 | 1.50 | 93 | 1009.8 |
| 20260506210537 | 52 | 56 | 0.0 | 0.0 | 0.00 | 0.00 | 1.50 | 93 | 1009.8 |
| 20260506210043 | 52 | 56 | 0.0 | 0.0 | 0.00 | 0.00 | 1.50 | 92 | 1009.7 |
| 20260506205528 | 52 | 56 | 0.0 | 0.0 | 0.00 | 0.00 | 1.50 | 92 | 1009.7 |
| 20260506205033 | 52 | 56 | 0.0 | 0.0 | 0.00 | 0.00 | 1.50 | 92 | 1009.7 |
| 20260506204538 | 52 | 55 | 0.0 | 0.0 | 0.00 | 0.00 | 1.50 | 91 | 1009.7 |
| 20260506204038 | 52 | 302 | 0.0 | 0.0 | 0.00 | 0.00 | 1.50 | 93 | 1009.7 |
| 20260506203529 | 52 | 302 | 0.0 | 0.0 | 0.00 | 0.00 | 1.50 | 92 | 1009.7 |
| 20260506203028 | 52 | 302 | 0.0 | 0.0 | 0.00 | 0.00 | 1.50 | 93 | 1009.7 |
| 20260506202534 | 52 | 302 | 0.0 | 0.0 | 0.00 | 0.00 | 1.50 | 93 | 1009.6 |
| 20260506201526 | 52 | 302 | 0.0 | 0.0 | 0.00 | 0.00 | 1.50 | 91 | 1009.6 |
| 20260506201037 | 52 | 302 | 0.0 | 0.0 | 0.00 | 0.00 | 1.50 | 92 | 1009.6 |
| 20260506200528 | 52 | 302 | 0.0 | 0.0 | 0.00 | 0.00 | 1.50 | 92 | 1009.5 |
| 20260506200020 | 52 | 302 | 0.0 | 0.0 | 0.00 | 0.00 | 1.50 | 92 | 1009.5 |
| 20260506195028 | 53 | 296 | 0.0 | 0.0 | 0.00 | 0.00 | 1.50 | 91 | 1009.4 |
| 20260506194533 | 53 | 317 | 0.0 | 0.0 | 0.00 | 0.00 | 1.50 | 90 | 1009.5 |
| 20260506194041 | 53 | 5 | 0.0 | 0.0 | 0.00 | 0.00 | 1.50 | 89 | 1009.3 |
| 20260506193530 | 53 | 234 | 0.0 | 0.0 | 0.00 | 0.00 | 1.50 | 89 | 1008.9 |
| 20260506193022 | 53 | 180 | 0.0 | 0.0 | 0.00 | 0.00 | 1.50 | 89 | 1008.8 |
| 20260506192034 | 53 | 86 | 0.9 | 0.0 | 0.00 | 0.00 | 1.50 | 88 | 1008.7 |
| 20260506191530 | 53 | 42 | 0.9 | 0.0 | 0.00 | 0.00 | 1.50 | 88 | 1008.7 |
| 20260506191023 | 53 | 342 | 0.0 | 0.0 | 0.00 | 0.00 | 1.50 | 89 | 1008.9 |
| 20260506190527 | 53 | 307 | 0.9 | 0.0 | 0.00 | 0.00 | 1.50 | 89 | 1008.9 |
| 20260506190036 | 53 | 5 | 0.9 | 0.0 | 0.00 | 0.00 | 1.50 | 87 | 1008.9 |
| 20260506185538 | 53 | 333 | 0.9 | 0.0 | 0.00 | 0.00 | 1.50 | 88 | 1009.0 |
| 20260506185038 | 53 | 325 | 2.6 | 0.0 | 0.00 | 0.00 | 1.50 | 88 | 1009.0 |
| 20260506184535 | 54 | 324 | 4.3 | 0.0 | 0.00 | 0.00 | 1.50 | 90 | 1009.1 |
| 20260506183028 | 53 | 229 | 0.0 | 0.0 | 0.00 | 0.00 | 1.50 | 95 | 1008.4 |
| 20260506182551 | 53 | 228 | 0.0 | 0.0 | 0.00 | 0.00 | 1.50 | 95 | 1008.1 |
| 20260506182021 | 53 | 194 | 0.0 | 0.0 | 0.00 | 0.00 | 1.50 | 95 | 1008.1 |
| 20260506181529 | 53 | 51 | 0.0 | 0.0 | 0.00 | 0.00 | 1.50 | 95 | 1007.9 |
| 20260506181036 | 53 | 51 | 0.0 | 0.0 | 0.00 | 0.00 | 1.50 | 95 | 1007.9 |
| 20260506180524 | 53 | 51 | 0.0 | 0.0 | 0.00 | 0.00 | 1.50 | 95 | 1007.7 |
| 20260506180031 | 53 | 51 | 0.0 | 0.0 | 0.00 | 0.00 | 1.50 | 95 | 1007.7 |
| 20260506175521 | 53 | 51 | 0.0 | 0.0 | 0.00 | 0.00 | 1.50 | 96 | 1007.6 |
| 20260506175036 | 53 | 51 | 0.0 | 0.0 | 0.00 | 0.00 | 1.50 | 95 | 1007.5 |
| 20260506174533 | 54 | 51 | 0.0 | 0.0 | 0.00 | 0.00 | 1.50 | 95 | 1007.5 |
| 20260506174032 | 54 | 51 | 0.0 | 0.0 | 0.00 | 0.00 | 1.50 | 95 | 1007.4 |
| 20260506173532 | 54 | 51 | 0.0 | 0.0 | 0.00 | 0.00 | 1.50 | 95 | 1007.4 |
| 20260506172536 | 53 | 51 | 0.0 | 0.0 | 0.00 | 0.00 | 1.50 | 94 | 1007.3 |
| 20260506172024 | 54 | 316 | 0.0 | 0.0 | 0.00 | 0.00 | 1.50 | 94 | 1007.2 |
| 20260506171538 | 54 | 316 | 0.0 | 0.0 | 0.00 | 0.00 | 1.50 | 93 | 1007.2 |
| 20260506171024 | 54 | 80 | 0.0 | 0.0 | 0.00 | 0.00 | 1.50 | 93 | 1007.2 |
| 20260506170534 | 54 | 80 | 0.0 | 0.0 | 0.00 | 0.00 | 1.50 | 92 | 1007.1 |
| 20260506170024 | 55 | 80 | 0.0 | 0.0 | 0.00 | 0.00 | 1.50 | 92 | 1007.1 |
| 20260506165531 | 55 | 80 | 0.0 | 0.0 | 0.00 | 0.00 | 1.50 | 91 | 1007.0 |
| 20260506164523 | 56 | 9 | 0.0 | 0.0 | 0.00 | 0.00 | 1.50 | 90 | 1007.1 |
| 20260506164029 | 56 | 9 | 0.0 | 0.0 | 0.00 | 0.00 | 1.50 | 89 | 1007.1 |
| 20260506163529 | 57 | 9 | 0.0 | 0.0 | 0.00 | 0.00 | 1.50 | 90 | 1007.0 |
| 20260506162526 | 57 | 130 | 0.9 | 0.0 | 0.00 | 0.00 | 1.50 | 91 | 1006.9 |
| 20260506162056 | 56 | 132 | 0.9 | 0.0 | 0.00 | 0.00 | 1.50 | 92 | 1006.7 |
| 20260506161523 | 55 | 115 | 0.9 | 0.0 | 0.00 | 0.00 | 1.50 | 91 | 1006.5 |
| 20260506160539 | 54 | 331 | 2.6 | 0.0 | 0.00 | 0.00 | 1.50 | 92 | 1006.2 |
| 20260506160022 | 54 | 88 | 1.7 | 0.0 | 0.00 | 0.00 | 1.50 | 92 | 1006.2 |
| 20260506155035 | 53 | 92 | 0.9 | 0.0 | 0.00 | 0.00 | 1.50 | 93 | 1006.2 |
| 20260506154033 | 52 | 315 | 1.7 | 0.0 | 0.00 | 0.00 | 1.50 | 94 | 1006.1 |
| 20260506153536 | 51 | 11 | 0.9 | 0.0 | 0.00 | 0.00 | 1.50 | 94 | 1006.1 |
| 20260506152520 | 51 | 296 | 1.7 | 0.0 | 0.00 | 0.00 | 1.42 | 91 | 1006.4 |
| 20260506152023 | 52 | 49 | 4.3 | 0.0 | 0.00 | 0.00 | 1.30 | 89 | 1006.9 |
| 20260506151527 | 53 | 343 | 7.0 | 0.0 | 0.00 | 0.00 | 1.01 | 90 | 1007.0 |
| 20260506151032 | 54 | 15 | 7.0 | 0.0 | 0.00 | 0.00 | 0.91 | 89 | 1006.7 |
| 20260506150536 | 56 | 313 | 4.3 | 0.0 | 0.00 | 0.00 | 0.84 | 88 | 1006.7 |
| 20260506145534 | 59 | 287 | 2.6 | 0.0 | 0.00 | 0.00 | 0.68 | 84 | 1006.9 |
| 20260506145027 | 61 | 308 | 3.5 | 0.0 | 0.00 | 0.00 | 0.62 | 80 | 1006.7 |
| 20260506144027 | 63 | 107 | 3.5 | 0.0 | 0.00 | 0.00 | 0.61 | 82 | 1006.0 |
| 20260506143534 | 63 | 85 | 2.6 | 0.0 | 0.00 | 0.00 | 0.61 | 82 | 1005.6 |
| 20260506143022 | 63 | 96 | 1.7 | 0.0 | 0.00 | 0.00 | 0.61 | 83 | 1005.9 |
| 20260506142535 | 63 | 202 | 0.9 | 0.0 | 0.00 | 0.00 | 0.61 | 82 | 1006.1 |
| 20260506142028 | 64 | 207 | 0.9 | 0.0 | 0.00 | 0.00 | 0.61 | 81 | 1006.2 |
| 20260506141519 | 64 | 115 | 2.6 | 0.0 | 0.00 | 0.00 | 0.61 | 80 | 1005.9 |
| 20260506141032 | 65 | 138 | 3.5 | 0.0 | 0.00 | 0.00 | 0.61 | 79 | 1005.9 |
| 20260506140026 | 63 | 94 | 3.5 | 0.0 | 0.00 | 0.00 | 0.61 | 83 | 1006.3 |
| 20260506135534 | 63 | 92 | 3.5 | 0.0 | 0.00 | 0.00 | 0.61 | 83 | 1006.3 |
| 20260506135025 | 63 | 80 | 3.5 | 0.0 | 0.00 | 0.00 | 0.61 | 84 | 1006.3 |
| 20260506134528 | 62 | 112 | 3.5 | 0.0 | 0.00 | 0.00 | 0.61 | 85 | 1006.6 |
| 20260506134034 | 62 | 115 | 4.3 | 0.0 | 0.00 | 0.00 | 0.61 | 84 | 1006.6 |
| 20260506133035 | 64 | 105 | 3.5 | 0.0 | 0.00 | 0.00 | 0.61 | 83 | 1006.9 |
| 20260506131536 | 64 | 92 | 3.5 | 0.0 | 0.00 | 0.00 | 0.61 | 84 | 1007.0 |
| 20260506131032 | 63 | 66 | 4.3 | 0.0 | 0.00 | 0.00 | 0.61 | 85 | 1007.2 |
| 20260506130535 | 63 | 64 | 4.3 | 0.0 | 0.00 | 0.00 | 0.61 | 86 | 1007.2 |
| 20260506130024 | 62 | 81 | 4.3 | 0.0 | 0.00 | 0.00 | 0.61 | 88 | 1007.2 |
| 20260506125527 | 62 | 74 | 4.3 | 0.0 | 0.00 | 0.00 | 0.61 | 86 | 1007.1 |
| 20260506125035 | 62 | 61 | 4.3 | 0.0 | 0.00 | 0.00 | 0.61 | 88 | 1007.2 |
| 20260506124521 | 61 | 96 | 4.3 | 0.0 | 0.00 | 0.00 | 0.61 | 88 | 1007.2 |
| 20260506124022 | 61 | 94 | 3.5 | 0.0 | 0.00 | 0.00 | 0.61 | 91 | 1007.3 |
| 20260506123529 | 61 | 49 | 2.6 | 0.0 | 0.00 | 0.00 | 0.61 | 92 | 1007.2 |
| 20260506123038 | 60 | 67 | 2.6 | 0.0 | 0.00 | 0.00 | 0.61 | 96 | 1007.2 |
| 20260506122524 | 59 | 192 | 3.5 | 0.0 | 0.00 | 0.00 | 0.61 | 95 | 1007.2 |
| 20260506122031 | 58 | 87 | 3.5 | 0.0 | 0.00 | 0.00 | 0.61 | 94 | 1007.2 |
| 20260506121054 | 58 | 79 | 3.5 | 0.0 | 0.00 | 0.00 | 0.61 | 93 | 1007.3 |
| 20260506120536 | 58 | 84 | 3.5 | 0.0 | 0.00 | 0.00 | 0.61 | 92 | 1007.5 |
| 20260506120030 | 59 | 119 | 3.5 | 0.0 | 0.00 | 0.00 | 0.58 | 92 | 1007.6 |
| 20260506115533 | 59 | 83 | 4.3 | 0.0 | 0.00 | 0.00 | 0.58 | 90 | 1007.7 |
| 20260506115019 | 60 | 111 | 4.3 | 0.0 | 0.00 | 0.00 | 0.56 | 88 | 1007.3 |
| 20260506114527 | 61 | 83 | 4.3 | 0.0 | 0.00 | 0.00 | 0.56 | 85 | 1007.4 |
| 20260506114031 | 61 | 83 | 4.3 | 0.0 | 0.00 | 0.00 | 0.56 | 86 | 1007.5 |
| 20260506113521 | 61 | 160 | 3.5 | 0.0 | 0.00 | 0.00 | 0.56 | 88 | 1007.6 |
| 20260506113027 | 60 | 97 | 3.5 | 0.0 | 0.00 | 0.00 | 0.56 | 89 | 1007.6 |
| 20260506112022 | 59 | 194 | 4.3 | 0.0 | 0.00 | 0.00 | 0.56 | 90 | 1007.7 |
| 20260506111027 | 59 | 88 | 5.2 | 0.0 | 0.00 | 0.00 | 0.56 | 89 | 1007.1 |
| 20260506110541 | 59 | 94 | 5.2 | 0.0 | 0.00 | 0.00 | 0.56 | 88 | 1007.5 |
| 20260506110022 | 59 | 94 | 4.3 | 0.0 | 0.00 | 0.00 | 0.56 | 87 | 1007.6 |
| 20260506105526 | 60 | 73 | 4.3 | 0.0 | 0.00 | 0.00 | 0.56 | 87 | 1007.7 |
| 20260506105027 | 60 | 81 | 5.2 | 0.0 | 0.00 | 0.00 | 0.56 | 86 | 1007.8 |
| 20260506104029 | 60 | 110 | 6.1 | 0.0 | 0.00 | 0.00 | 0.56 | 86 | 1007.9 |
| 20260506103534 | 61 | 88 | 5.2 | 0.0 | 0.00 | 0.00 | 0.56 | 86 | 1007.9 |
| 20260506101524 | 60 | 144 | 3.5 | 0.0 | 0.00 | 0.00 | 0.56 | 88 | 1008.1 |
| 20260506100032 | 59 | 83 | 4.3 | 0.0 | 0.00 | 0.00 | 0.56 | 89 | 1008.0 |
| 20260506095526 | 59 | 189 | 3.5 | 0.0 | 0.00 | 0.00 | 0.55 | 92 | 1008.0 |
| 20260506095022 | 58 | 96 | 3.5 | 0.0 | 0.00 | 0.00 | 0.55 | 92 | 1008.0 |
| 20260506094526 | 57 | 110 | 2.6 | 0.0 | 0.00 | 0.00 | 0.55 | 94 | 1008.0 |
| 20260506094030 | 56 | 130 | 3.5 | 0.0 | 0.00 | 0.00 | 0.55 | 94 | 1007.8 |
| 20260506093531 | 56 | 78 | 4.3 | 0.0 | 0.00 | 0.00 | 0.55 | 93 | 1007.8 |
| 20260506093035 | 56 | 54 | 3.5 | 0.0 | 0.00 | 0.00 | 0.55 | 94 | 1007.9 |
| 20260506092540 | 56 | 51 | 2.6 | 0.0 | 0.00 | 0.00 | 0.55 | 95 | 1007.7 |
| 20260506091532 | 55 | 101 | 1.7 | 0.0 | 0.00 | 0.00 | 0.55 | 96 | 1008.0 |
| 20260506091029 | 55 | 73 | 0.9 | 0.0 | 0.00 | 0.00 | 0.55 | 96 | 1007.9 |
| 20260506085524 | 55 | 130 | 0.9 | 0.0 | 0.00 | 0.00 | 0.50 | 96 | 1008.1 |
| 20260506084023 | 55 | 198 | 0.9 | 0.0 | 0.00 | 0.00 | 0.42 | 95 | 1008.0 |
| 20260506083530 | 56 | 93 | 1.7 | 0.0 | 0.00 | 0.00 | 0.38 | 95 | 1008.0 |
| 20260506083019 | 56 | 155 | 1.7 | 0.0 | 0.00 | 0.00 | 0.32 | 95 | 1008.0 |
| 20260506082027 | 56 | 106 | 4.3 | 0.0 | 0.00 | 0.00 | 0.28 | 93 | 1007.8 |
| 20260506081529 | 56 | 81 | 2.6 | 0.0 | 0.00 | 0.00 | 0.28 | 94 | 1007.5 |
| 20260506080529 | 56 | 96 | 3.5 | 0.0 | 0.00 | 0.00 | 0.28 | 95 | 1007.5 |
| 20260506073025 | 56 | 88 | 4.3 | 0.0 | 0.00 | 0.00 | 0.28 | 96 | 1008.0 |
| 20260506072536 | 56 | 79 | 4.3 | 0.0 | 0.00 | 0.00 | 0.28 | 96 | 1008.0 |
| 20260506072027 | 55 | 96 | 4.3 | 0.0 | 0.00 | 0.00 | 0.28 | 97 | 1007.9 |
| 20260506071520 | 55 | 84 | 4.3 | 0.0 | 0.00 | 0.00 | 0.27 | 96 | 1008.0 |
| 20260506071111 | 55 | 76 | 4.3 | 0.0 | 0.00 | 0.00 | 0.27 | 96 | 1008.2 |
| 20260506070532 | 55 | 101 | 3.5 | 0.0 | 0.00 | 0.00 | 0.27 | 96 | 1008.2 |